Time,TemperatureF,DewpointF,PressureIn,WindDirection,WindDirectionDegrees,WindSpeedMPH,WindSpeedGustMPH,Humidity,HourlyPrecipIn,Conditions,Clouds,dailyrainin,SoftwareType,DateUTC
2013-07-05 00:00:00,69.3,67.5,30.11,SSW,192,0.0,0.0,94,0.00,,---,0.00,VWS V14.01,2013-07-05 04:00:00,
2013-07-05 00:01:00,69.3,67.5,30.11,SSW,192,0.0,0.0,94,0.00,,---,0.00,VWS V14.01,2013-07-05 04:01:00,
2013-07-05 00:06:00,69.2,67.4,30.12,SSW,192,0.0,0.0,94,0.00,,---,0.00,VWS V14.01,2013-07-05 04:06:00,
2013-07-05 00:11:00,69.1,67.3,30.12,SSW,192,0.0,0.0,94,0.00,,---,0.00,VWS V14.01,2013-07-05 04:11:00,
2013-07-05 00:16:00,69.0,67.2,30.12,SSW,192,0.0,0.0,94,0.00,,---,0.00,VWS V14.01,2013-07-05 04:16:00,
2013-07-05 00:21:00,69.0,67.2,30.12,SSW,192,0.0,0.0,94,0.00,,---,0.00,VWS V14.01,2013-07-05 04:21:00,
2013-07-05 00:26:00,68.9,67.1,30.12,SSW,192,0.0,0.0,94,0.01,,---,0.01,VWS V14.01,2013-07-05 04:26:00,
2013-07-05 00:31:00,68.8,67.0,30.12,SSW,192,0.0,0.0,94,0.01,,---,0.01,VWS V14.01,2013-07-05 04:31:00,
2013-07-05 00:36:00,68.7,66.9,30.12,SSW,192,0.0,0.0,94,0.01,,---,0.01,VWS V14.01,2013-07-05 04:36:00,
2013-07-05 00:41:00,68.6,66.8,30.12,SSW,192,0.0,0.0,94,0.01,,---,0.01,VWS V14.01,2013-07-05 04:41:00,
2013-07-05 00:46:00,68.5,66.7,30.12,SSW,192,0.0,0.0,94,0.01,,---,0.01,VWS V14.01,2013-07-05 04:46:00,
2013-07-05 00:51:00,68.4,66.6,30.12,SSW,192,0.0,0.0,94,0.01,,---,0.01,VWS V14.01,2013-07-05 04:51:00,
2013-07-05 00:56:00,68.4,66.9,30.12,SSW,192,0.0,0.0,95,0.01,,---,0.01,VWS V14.01,2013-07-05 04:56:00,
2013-07-05 01:01:00,68.3,66.8,30.12,SSW,192,0.0,0.0,95,0.01,,---,0.01,VWS V14.01,2013-07-05 05:01:00,
2013-07-05 01:06:00,68.2,66.7,30.12,SSW,192,0.0,0.0,95,0.01,,---,0.01,VWS V14.01,2013-07-05 05:06:00,
2013-07-05 01:11:00,68.1,66.6,30.12,SSW,192,0.0,0.0,95,0.01,,---,0.01,VWS V14.01,2013-07-05 05:11:00,
2013-07-05 01:16:00,68.0,66.5,30.12,SSW,192,0.0,0.0,95,0.01,,---,0.01,VWS V14.01,2013-07-05 05:16:00,
2013-07-05 01:21:00,68.0,66.5,30.13,SSW,192,0.0,0.0,95,0.01,,---,0.01,VWS V14.01,2013-07-05 05:21:00,
2013-07-05 01:26:00,68.0,66.5,30.13,SSW,192,0.0,0.0,95,0.01,,---,0.01,VWS V14.01,2013-07-05 05:26:00,
2013-07-05 01:31:00,68.0,66.5,30.12,SSW,192,0.0,0.0,95,0.00,,---,0.01,VWS V14.01,2013-07-05 05:31:00,
2013-07-05 01:36:00,68.1,66.6,30.12,SSW,192,0.0,0.0,95,0.00,,---,0.01,VWS V14.01,2013-07-05 05:36:00,
2013-07-05 01:41:00,68.1,66.6,30.12,SSW,192,0.0,0.0,95,0.00,,---,0.01,VWS V14.01,2013-07-05 05:41:00,
2013-07-05 01:46:00,68.2,66.7,30.11,SSW,192,0.0,0.0,95,0.00,,---,0.01,VWS V14.01,2013-07-05 05:46:00,
2013-07-05 01:51:00,68.2,66.7,30.11,SSW,192,0.0,0.0,95,0.00,,---,0.01,VWS V14.01,2013-07-05 05:51:00,
2013-07-05 01:56:00,68.3,66.8,30.11,SSW,192,0.0,0.0,95,0.00,,---,0.01,VWS V14.01,2013-07-05 05:56:00,
2013-07-05 02:01:00,68.3,66.8,30.11,SSW,192,0.0,0.0,95,0.00,,---,0.01,VWS V14.01,2013-07-05 06:01:00,
2013-07-05 02:06:00,68.2,66.7,30.11,SSW,192,0.0,0.0,95,0.00,,---,0.01,VWS V14.01,2013-07-05 06:06:00,
2013-07-05 02:11:00,68.2,67.0,30.11,SSW,192,0.0,0.0,96,0.00,,---,0.01,VWS V14.01,2013-07-05 06:11:00,
2013-07-05 02:16:00,68.1,66.6,30.10,SSW,192,0.0,0.0,95,0.00,,---,0.01,VWS V14.01,2013-07-05 06:16:00,
2013-07-05 02:21:00,68.0,66.5,30.10,SSW,192,0.0,0.0,95,0.00,,---,0.01,VWS V14.01,2013-07-05 06:21:00,
2013-07-05 02:27:00,67.9,66.4,30.10,SSW,192,0.0,0.0,95,0.00,,---,0.01,VWS V14.01,2013-07-05 06:27:00,
2013-07-05 02:32:00,67.8,66.3,30.10,SSW,192,0.0,0.0,95,0.00,,---,0.01,VWS V14.01,2013-07-05 06:32:00,
2013-07-05 02:37:00,67.7,66.2,30.10,SSW,192,0.0,0.0,95,0.00,,---,0.01,VWS V14.01,2013-07-05 06:37:00,
2013-07-05 02:42:00,67.6,66.1,30.11,SSW,192,0.0,0.0,95,0.00,,---,0.01,VWS V14.01,2013-07-05 06:42:00,
2013-07-05 02:47:00,67.5,66.0,30.11,SSW,192,0.0,0.0,95,0.00,,---,0.01,VWS V14.01,2013-07-05 06:47:00,
2013-07-05 02:52:00,67.5,66.0,30.11,SSW,192,0.0,0.0,95,0.00,,---,0.01,VWS V14.01,2013-07-05 06:52:00,
2013-07-05 02:57:00,67.4,66.2,30.11,SSW,192,0.0,0.0,96,0.00,,---,0.01,VWS V14.01,2013-07-05 06:57:00,
2013-07-05 03:02:00,67.4,66.2,30.10,SSW,192,0.0,0.0,96,0.00,,---,0.01,VWS V14.01,2013-07-05 07:02:00,
2013-07-05 03:07:00,67.4,66.2,30.10,SSW,192,0.0,0.0,96,0.00,,---,0.01,VWS V14.01,2013-07-05 07:07:00,
2013-07-05 03:12:00,67.4,66.2,30.10,SSE,152,0.0,0.0,96,0.00,,---,0.01,VWS V14.01,2013-07-05 07:12:00,
2013-07-05 03:17:00,67.4,66.2,30.10,SSE,152,0.0,0.0,96,0.00,,---,0.01,VWS V14.01,2013-07-05 07:17:00,
2013-07-05 03:22:00,67.4,66.2,30.10,SSE,152,0.0,0.0,96,0.00,,---,0.01,VWS V14.01,2013-07-05 07:22:00,
2013-07-05 03:27:00,67.3,66.1,30.10,SSE,152,0.0,0.0,96,0.00,,---,0.01,VWS V14.01,2013-07-05 07:27:00,
2013-07-05 03:31:00,67.3,66.1,30.10,SSE,152,0.0,0.0,96,0.00,,---,0.01,VWS V14.01,2013-07-05 07:31:00,
2013-07-05 03:36:00,67.3,66.1,30.10,SSE,152,0.0,0.0,96,0.00,,---,0.01,VWS V14.01,2013-07-05 07:36:00,
2013-07-05 03:42:00,67.2,66.0,30.10,SSE,152,0.0,0.0,96,0.00,,---,0.01,VWS V14.01,2013-07-05 07:42:00,
2013-07-05 03:47:00,67.2,66.0,30.10,SSE,152,0.0,0.0,96,0.00,,---,0.01,VWS V14.01,2013-07-05 07:47:00,
2013-07-05 03:52:00,67.1,65.9,30.10,SSE,152,0.0,0.0,96,0.00,,---,0.01,VWS V14.01,2013-07-05 07:52:00,
2013-07-05 03:57:00,67.1,65.9,30.10,SSE,152,0.0,0.0,96,0.00,,---,0.01,VWS V14.01,2013-07-05 07:57:00,
2013-07-05 04:02:00,67.0,65.8,30.10,SSE,152,0.0,0.0,96,0.00,,---,0.01,VWS V14.01,2013-07-05 08:02:00,
2013-07-05 04:07:00,66.9,65.7,30.10,SSE,152,0.0,0.0,96,0.00,,---,0.01,VWS V14.01,2013-07-05 08:07:00,
2013-07-05 04:12:00,66.9,65.7,30.10,SSE,152,0.0,0.0,96,0.00,,---,0.01,VWS V14.01,2013-07-05 08:12:00,
2013-07-05 04:17:00,66.8,65.6,30.10,SSE,152,0.0,0.0,96,0.00,,---,0.01,VWS V14.01,2013-07-05 08:17:00,
2013-07-05 04:22:00,66.7,65.5,30.10,SSE,152,0.0,0.0,96,0.00,,---,0.01,VWS V14.01,2013-07-05 08:22:00,
2013-07-05 04:27:00,66.7,65.5,30.10,SSE,152,0.0,0.0,96,0.00,,---,0.01,VWS V14.01,2013-07-05 08:27:00,
2013-07-05 04:32:00,66.6,65.4,30.10,SSE,152,0.0,0.0,96,0.00,,---,0.01,VWS V14.01,2013-07-05 08:32:00,
2013-07-05 04:37:00,66.6,65.4,30.10,SSE,152,0.0,0.0,96,0.00,,---,0.01,VWS V14.01,2013-07-05 08:37:00,
2013-07-05 04:42:00,66.6,65.4,30.10,SSE,152,0.0,0.0,96,0.00,,---,0.01,VWS V14.01,2013-07-05 08:42:00,
2013-07-05 04:46:00,66.6,65.4,30.10,SSE,152,0.0,0.0,96,0.00,,---,0.01,VWS V14.01,2013-07-05 08:46:00,
2013-07-05 04:51:00,66.6,65.4,30.10,SSE,152,0.0,0.0,96,0.00,,---,0.01,VWS V14.01,2013-07-05 08:51:00,
2013-07-05 04:57:00,66.6,65.4,30.10,SSE,152,0.0,0.0,96,0.00,,---,0.01,VWS V14.01,2013-07-05 08:57:00,
2013-07-05 05:02:00,66.6,65.4,30.10,SSE,152,0.0,0.0,96,0.00,,---,0.01,VWS V14.01,2013-07-05 09:02:00,
2013-07-05 05:07:00,66.6,65.4,30.09,SSE,152,0.0,0.0,96,0.00,,---,0.01,VWS V14.01,2013-07-05 09:07:00,
2013-07-05 05:12:00,66.7,65.5,30.09,SSE,152,0.0,0.0,96,0.00,,---,0.01,VWS V14.01,2013-07-05 09:12:00,
2013-07-05 05:17:00,66.7,65.5,30.10,SSE,152,0.0,0.0,96,0.00,,---,0.01,VWS V14.01,2013-07-05 09:17:00,
2013-07-05 05:22:00,66.7,65.5,30.10,SSE,152,0.0,0.0,96,0.00,,---,0.01,VWS V14.01,2013-07-05 09:22:00,
2013-07-05 20:52:00,75.7,71.2,30.08,South,188,0.0,0.0,86,0.00,,---,0.09,VWS V14.01,2013-07-06 00:52:00,
2013-07-05 20:57:00,75.3,70.8,30.09,South,188,0.0,0.0,86,0.00,,---,0.09,VWS V14.01,2013-07-06 00:57:00,
2013-07-05 21:02:00,75.0,70.9,30.08,South,188,0.0,0.0,87,0.00,,---,0.09,VWS V14.01,2013-07-06 01:02:00,
2013-07-05 21:07:00,74.7,70.6,30.08,South,188,0.0,0.0,87,0.00,,---,0.09,VWS V14.01,2013-07-06 01:07:00,
2013-07-05 21:12:00,74.3,70.2,30.08,South,188,0.0,0.0,87,0.00,,---,0.09,VWS V14.01,2013-07-06 01:12:00,
2013-07-05 21:17:00,74.0,69.9,30.08,South,188,0.0,0.0,87,0.00,,---,0.09,VWS V14.01,2013-07-06 01:17:00,
2013-07-05 21:22:00,73.7,69.6,30.09,South,188,0.0,0.0,87,0.00,,---,0.09,VWS V14.01,2013-07-06 01:22:00,
2013-07-05 21:27:00,73.4,69.6,30.09,South,188,0.0,0.0,88,0.00,,---,0.09,VWS V14.01,2013-07-06 01:27:00,
2013-07-05 21:32:00,73.2,69.4,30.09,South,188,0.0,0.0,88,0.00,,---,0.09,VWS V14.01,2013-07-06 01:32:00,
2013-07-05 21:37:00,73.0,69.2,30.09,South,188,0.0,0.0,88,0.00,,---,0.09,VWS V14.01,2013-07-06 01:37:00,
2013-07-05 21:42:00,72.7,69.3,30.09,South,188,0.0,0.0,89,0.00,,---,0.09,VWS V14.01,2013-07-06 01:42:00,
2013-07-05 21:47:00,72.5,69.1,30.10,South,188,0.0,0.0,89,0.00,,---,0.09,VWS V14.01,2013-07-06 01:47:00,
2013-07-05 21:52:00,72.3,68.9,30.10,South,188,0.0,0.0,89,0.00,,---,0.09,VWS V14.01,2013-07-06 01:52:00,
2013-07-05 21:57:00,72.1,69.0,30.10,South,188,0.0,0.0,90,0.00,,---,0.09,VWS V14.01,2013-07-06 01:57:00,
2013-07-05 22:02:00,72.0,68.9,30.10,South,188,0.0,0.0,90,0.00,,---,0.09,VWS V14.01,2013-07-06 02:02:00,
2013-07-05 22:07:00,71.8,68.7,30.10,South,188,0.0,0.0,90,0.00,,---,0.09,VWS V14.01,2013-07-06 02:07:00,
2013-07-05 22:12:00,71.6,68.5,30.10,South,188,0.0,0.0,90,0.00,,---,0.09,VWS V14.01,2013-07-06 02:12:00,
2013-07-05 22:17:00,71.4,68.6,30.10,South,188,0.0,0.0,91,0.00,,---,0.09,VWS V14.01,2013-07-06 02:17:00,
2013-07-05 22:22:00,71.2,68.4,30.11,South,188,0.0,0.0,91,0.00,,---,0.09,VWS V14.01,2013-07-06 02:22:00,
2013-07-05 22:27:00,71.1,68.3,30.11,South,188,0.0,0.0,91,0.00,,---,0.09,VWS V14.01,2013-07-06 02:27:00,
2013-07-05 22:32:00,70.9,68.2,30.11,South,188,0.0,0.0,91,0.00,,---,0.09,VWS V14.01,2013-07-06 02:32:00,
2013-07-05 22:37:00,70.7,67.9,30.11,South,188,0.0,0.0,91,0.00,,---,0.09,VWS V14.01,2013-07-06 02:37:00,
2013-07-05 22:42:00,70.6,68.2,30.11,South,188,0.0,0.0,92,0.00,,---,0.09,VWS V14.01,2013-07-06 02:42:00,
2013-07-05 22:47:00,70.5,68.1,30.11,South,188,0.0,0.0,92,0.00,,---,0.09,VWS V14.01,2013-07-06 02:47:00,
2013-07-05 22:52:00,70.3,67.9,30.11,South,188,0.0,0.0,92,0.00,,---,0.09,VWS V14.01,2013-07-06 02:52:00,
2013-07-05 22:57:00,70.2,67.8,30.11,South,188,0.0,0.0,92,0.00,,---,0.09,VWS V14.01,2013-07-06 02:57:00,
2013-07-05 23:02:00,70.1,67.7,30.11,South,188,0.0,0.0,92,0.00,,---,0.09,VWS V14.01,2013-07-06 03:02:00,
2013-07-05 23:07:00,70.0,67.9,30.11,South,188,0.0,0.0,93,0.00,,---,0.09,VWS V14.01,2013-07-06 03:07:00,
2013-07-05 23:08:00,70.0,67.9,30.11,South,188,0.0,0.0,93,0.00,,---,0.09,VWS V14.01,2013-07-06 03:08:00,
2013-07-05 23:13:00,70.0,67.9,30.11,South,188,0.0,0.0,93,0.00,,---,0.09,VWS V14.01,2013-07-06 03:13:00,
2013-07-05 23:18:00,69.9,67.8,30.11,South,188,0.0,0.0,93,0.00,,---,0.09,VWS V14.01,2013-07-06 03:18:00,
2013-07-05 23:23:00,69.9,67.8,30.11,South,188,0.0,0.0,93,0.00,,---,0.09,VWS V14.01,2013-07-06 03:23:00,
2013-07-05 23:28:00,69.8,67.7,30.11,South,188,0.0,0.0,93,0.00,,---,0.09,VWS V14.01,2013-07-06 03:28:00,
2013-07-05 23:33:00,69.7,67.6,30.11,South,188,0.0,0.0,93,0.00,,---,0.09,VWS V14.01,2013-07-06 03:33:00,
2013-07-05 23:38:00,69.7,67.6,30.11,South,188,0.0,0.0,93,0.00,,---,0.09,VWS V14.01,2013-07-06 03:38:00,
2013-07-05 23:43:00,69.6,67.8,30.11,South,188,0.0,0.0,94,0.00,,---,0.09,VWS V14.01,2013-07-06 03:43:00,
2013-07-05 23:48:00,69.6,67.8,30.11,South,188,0.0,0.0,94,0.00,,---,0.09,VWS V14.01,2013-07-06 03:48:00,
2013-07-05 23:53:00,69.5,67.7,30.11,South,188,0.0,0.0,94,0.00,,---,0.09,VWS V14.01,2013-07-06 03:53:00,
2013-07-05 23:58:00,69.4,67.6,30.11,South,188,0.0,0.0,94,0.00,,---,0.09,VWS V14.01,2013-07-06 03:58:00,